Latest Coastal Weather Observations for Spring Bay

IDT60701

Issued at 6:32 am EST Saturday 2 July 2016 (issued every 10 minutes, with the page automatically refreshed every 10 minutes)

About coastal observations | Map of coastal stations | Coastal observations for TAS | Marine services | Other Formats
Station Details ID: 092133 Name: SPRING BAY NTC AWS Lat: -42.55 Lon: 147.93 Height: 0.0 m
Data from the previous 72 hours. | See also: Recent months for locations in Tasmania
Date/Time
EST
Temp
°C
Wind Pressure Rain since
9am
mm
Weather Cloud Vis
km
Sea
Height
m
Swell
Dir  Spd
kts
Gust
kts
hPa Trend Height
m
Period
s
Dir
02/06:30am 10.2 - - - 1012.9 - - - - - - - - -
02/06:00am 10.8 - - - 1012.5 - - - - - - - - -
02/05:30am 8.7 - - - 1012.6 - - - - - - - - -
02/05:00am 9.3 - - - 1012.4 - - - - - - - - -
02/04:30am 8.3 - - - 1012.8 - - - - - - - - -
02/04:00am 8.3 - - - 1012.4 - - - - - - - - -
02/03:30am 7.9 - - - 1012.6 - - - - - - - - -
02/03:00am 7.7 - - - 1012.8 - - - - - - - - -
02/02:30am 8.0 - - - 1013.0 - - - - - - - - -
02/02:00am 8.3 - - - 1013.3 - - - - - - - - -
02/01:30am 7.3 - - - 1013.4 - - - - - - - - -
02/01:00am 8.1 - - - 1013.4 - - - - - - - - -
02/12:30am 9.9 - - - 1013.3 - - - - - - - - -
02/12:00am 8.6 - - - 1013.4 - - - - - - - - -
 
Date/Time
EST
Temp
°C
Wind Pressure Rain since
9am
mm
Weather Cloud Vis
km
Sea
Height
m
Swell
Dir  Spd
kts
Gust
kts
hPa Trend Height
m
Period
s
Dir
01/11:30pm 9.9 - - - 1013.5 - - - - - - - - -
01/11:00pm 9.9 - - - 1013.3 - - - - - - - - -
01/10:30pm 7.7 - - - 1013.6 - - - - - - - - -
01/10:00pm 9.7 - - - 1013.5 - - - - - - - - -
01/09:30pm 9.7 - - - 1013.6 - - - - - - - - -
01/09:00pm 10.2 - - - 1013.5 - - - - - - - - -
01/08:30pm 10.5 - - - 1013.5 - - - - - - - - -
01/08:00pm 8.8 - - - 1013.5 - - - - - - - - -
01/07:30pm 10.1 - - - 1013.5 - - - - - - - - -
01/07:00pm 10.2 - - - 1013.4 - - - - - - - - -
01/06:30pm 10.2 - - - 1013.2 - - - - - - - - -
01/06:00pm 10.9 - - - 1013.1 - - - - - - - - -
01/05:30pm 9.8 - - - 1012.9 - - - - - - - - -
01/05:00pm 11.3 - - - 1012.6 - - - - - - - - -
01/04:30pm 11.5 - - - 1012.4 - - - - - - - - -
01/04:00pm 12.4 - - - 1012.2 - - - - - - - - -
01/03:30pm 12.5 - - - 1012.1 - - - - - - - - -
01/03:00pm 12.8 - - - 1011.9 - - - - - - - - -
01/02:30pm 13.4 - - - 1011.4 - - - - - - - - -
01/02:00pm 13.2 - - - 1011.3 - - - - - - - - -
01/01:30pm 13.4 - - - 1011.2 - - - - - - - - -
01/01:00pm 13.1 - - - 1011.3 - - - - - - - - -
01/12:30pm 12.5 - - - 1011.6 - - - - - - - - -
01/12:00pm 12.5 - - - 1011.9 - - - - - - - - -
01/11:30am 12.7 - - - 1012.1 - - - - - - - - -
01/11:00am 11.2 - - - 1012.0 - - - - - - - - -
01/10:30am 11.2 - - - 1011.9 - - - - - - - - -
01/10:00am 11.3 - - - 1011.7 - - - - - - - - -
01/09:30am 9.8 - - - 1011.5 - - - - - - - - -
01/09:00am 8.3 - - - 1011.4 - - - - - - - - -
01/08:30am 7.2 - - - 1011.3 - - - - - - - - -
01/08:00am 7.9 - - - 1011.0 - - - - - - - - -
01/07:30am 7.2 - - - 1010.7 - - - - - - - - -
01/07:00am 7.8 - - - 1010.1 - - - - - - - - -
01/06:30am 7.7 - - - 1010.0 - - - - - - - - -
01/06:00am 7.7 - - - 1009.7 - - - - - - - - -
01/05:30am 7.4 - - - 1009.1 - - - - - - - - -
01/05:00am 7.8 - - - 1008.5 - - - - - - - - -
01/04:30am 7.7 - - - 1007.9 - - - - - - - - -
01/04:00am 8.2 - - - 1007.9 - - - - - - - - -
01/03:30am 8.7 - - - 1007.8 - - - - - - - - -
01/03:00am 9.1 - - - 1007.4 - - - - - - - - -
01/02:30am 8.9 - - - 1006.7 - - - - - - - - -
01/02:00am 9.1 - - - 1006.2 - - - - - - - - -
01/01:30am 9.9 - - - 1005.9 - - - - - - - - -
01/01:00am 9.8 - - - 1005.5 - - - - - - - - -
01/12:30am 10.4 - - - 1005.2 - - - - - - - - -
01/12:00am 10.8 - - - 1005.0 - - - - - - - - -
 
Date/Time
EST
Temp
°C
Wind Pressure Rain since
9am
mm
Weather Cloud Vis
km
Sea
Height
m
Swell
Dir  Spd
kts
Gust
kts
hPa Trend Height
m
Period
s
Dir
30/11:30pm 9.7 - - - 1004.9 - - - - - - - - -
30/11:00pm 9.8 - - - 1004.7 - - - - - - - - -
30/10:30pm 11.0 - - - 1004.5 - - - - - - - - -
30/10:00pm 10.6 - - - 1004.3 - - - - - - - - -
30/09:30pm 11.4 - - - 1004.0 - - - - - - - - -
30/09:00pm 11.1 - - - 1003.9 - - - - - - - - -
30/08:30pm 10.7 - - - 1003.8 - - - - - - - - -
30/08:00pm 11.1 - - - 1003.8 - - - - - - - - -
30/07:30pm 11.2 - - - 1003.6 - - - - - - - - -
30/07:00pm 11.2 - - - 1003.4 - - - - - - - - -
30/06:30pm 11.3 - - - 1003.0 - - - - - - - - -
30/06:00pm 11.7 - - - 1002.8 - - - - - - - - -
30/05:30pm 11.7 - - - 1002.6 - - - - - - - - -
30/05:00pm 11.7 - - - 1002.3 - - - - - - - - -
30/04:30pm 11.8 - - - 1002.2 - - - - - - - - -
30/04:00pm 11.8 - - - 1002.1 - - - - - - - - -
30/03:30pm 11.9 - - - 1002.2 - - - - - - - - -
30/03:00pm 12.1 - - - 1002.1 - - - - - - - - -
30/02:30pm 12.5 - - - 1002.3 - - - - - - - - -
30/02:00pm 12.2 - - - 1002.1 - - - - - - - - -
30/01:30pm 11.9 - - - 1002.6 - - - - - - - - -
30/01:00pm 11.8 - - - 1002.9 - - - - - - - - -
30/12:30pm 11.6 - - - 1003.8 - - - - - - - - -
30/12:00pm 11.6 - - - 1004.3 - - - - - - - - -
30/11:30am 11.6 - - - 1004.7 - - - - - - - - -
30/11:00am 11.8 - - - 1005.3 - - - - - - - - -
30/10:30am 11.6 - - - 1006.0 - - - - - - - - -
30/10:00am 11.7 - - - 1006.4 - - - - - - - - -
30/09:30am 11.6 - - - 1006.6 - - - - - - - - -
30/09:00am 11.7 - - - 1007.0 - - - - - - - - -
30/08:30am 11.7 - - - 1007.1 - - - - - - - - -
30/08:00am 11.8 - - - 1007.5 - - - - - - - - -
30/07:30am 11.9 - - - 1007.8 - - - - - - - - -
30/07:00am 11.7 - - - 1008.2 - - - - - - - - -
30/06:30am 12.1 - - - 1008.5 - - - - - - - - -
30/06:00am 12.3 - - - 1008.5 - - - - - - - - -
30/05:30am 11.9 - - - 1008.6 - - - - - - - - -
30/05:00am 11.5 - - - 1009.2 - - - - - - - - -
30/04:30am 12.2 - - - 1009.2 - - - - - - - - -
30/04:00am 12.1 - - - 1009.8 - - - - - - - - -
30/03:30am 12.3 - - - 1010.9 - - - - - - - - -
30/03:00am 12.7 - - - 1011.4 - - - - - - - - -
30/02:30am 12.6 - - - 1011.9 - - - - - - - - -
30/02:00am 12.5 - - - 1012.3 - - - - - - - - -
30/01:30am 12.3 - - - 1012.5 - - - - - - - - -
30/01:00am 12.2 - - - 1013.0 - - - - - - - - -
30/12:30am 12.7 - - - 1013.6 - - - - - - - - -
30/12:00am 12.6 - - - 1014.4 - - - - - - - - -
 
Date/Time
EST
Temp
°C
Wind Pressure Rain since
9am
mm
Weather Cloud Vis
km
Sea
Height
m
Swell
Dir  Spd
kts
Gust
kts
hPa Trend Height
m
Period
s
Dir
29/11:30pm 12.6 - - - 1014.3 - - - - - - - - -
29/11:00pm 12.5 - - - 1014.9 - - - - - - - - -
29/10:30pm 12.6 - - - 1015.2 - - - - - - - - -
29/10:00pm 12.6 - - - 1015.5 - - - - - - - - -
29/09:30pm 12.6 - - - 1015.8 - - - - - - - - -
29/09:00pm 12.9 - - - 1016.3 - - - - - - - - -
29/08:30pm 12.7 - - - 1016.5 - - - - - - - - -
29/08:00pm 12.6 - - - 1016.8 - - - - - - - - -
29/07:30pm 12.7 - - - 1017.0 - - - - - - - - -
29/07:00pm 12.5 - - - 1017.3 - - - - - - - - -
29/06:30pm 12.8 - - - 1017.3 - - - - - - - - -
29/06:00pm 12.8 - - - 1017.4 - - - - - - - - -
29/05:30pm 12.5 - - - 1017.3 - - - - - - - - -
29/05:00pm 13.0 - - - 1017.6 - - - - - - - - -

Other Formats:

Comma delimited format used in spreadsheet applications
http://www.bom.gov.au/fwo/IDT60701/IDT60701.95987.axf

JavaScript Object Notation format (JSON) in row-major order
http://www.bom.gov.au/fwo/IDT60701/IDT60701.95987.json